Pardubice, Czech Republic

3:22 AM CEST on June 25, 2017 (GMT +0200)
Pardubice

Weather History for LKPD - March, 2013

Change the Weather History Date:

Tuesday, March 5, 2013

  Actual Average Record
Temperature  
Mean Temperature 39 °F -  
Max Temperature 50 °F - - ()
Min Temperature 28 °F - - ()
Degree Days  
Heating Degree Days 26    
Moisture  
Dew Point 25 °F    
Average Humidity 58    
Maximum Humidity 75    
Minimum Humidity 40    
Precipitation  
Precipitation 0.00 in - - ()
Sea Level Pressure  
Sea Level Pressure 30.04 in    
Wind  
Wind Speed 7 mph ()    
Max Wind Speed 18 mph    
Max Gust Speed -    
T = Trace of Precipitation, MM = Missing Value Source: Averaged Metar Reports

Daily Weather History Graph

Daily Weather History Graph

Search for Another Location

Airport or City:

Trip Planner

Search our weather history database for the weather conditions in past years. The results will help you decide how hot, cold, wet, or windy it might be!

Date:

Astronomy

Mar. 05, 2013 Rise Set
Actual Time 6:32 AM CET 5:45 PM CET
Civil Twilight 5:59 AM CET 6:18 PM CET
Nautical Twilight 5:22 AM CET 6:55 PM CET
Astronomical Twilight 4:44 AM CET 7:33 PM CET
Moon 1:52 AM CET (3/5) 10:41 AM CET (3/5)
Length of Visible Light 12h 18m
Length of Day
11h 13m
Last Quarter, 44% of the Moon is Illuminated
Mar 5
Last Quarter
Mar 11
New
Mar 19
First Quarter
Mar 27
Full
Apr 3
Last Quarter

Hourly Weather History & Observations

Time (CET) Temp. Windchill Dew Point Humidity Pressure Visibility Wind Dir Wind Speed Gust Speed Precip Events Conditions
12:00 AM 32.0 °F 27.5 °F 23.0 °F 69% 30.18 in - East 4.6 mph - N/A   Clear
1:00 AM 28.4 °F 24.6 °F 21.2 °F 74% 30.18 in - East 3.5 mph - N/A   Clear
2:00 AM 28.4 °F - 21.2 °F 74% 30.18 in - Variable 1.2 mph - N/A   Clear
3:00 AM 32.0 °F 26.4 °F 23.0 °F 69% 30.15 in - East 5.8 mph - N/A   Clear
4:00 AM 32.0 °F 26.4 °F 24.8 °F 75% 30.12 in - East 5.8 mph - N/A   Clear
5:00 AM 32.0 °F 24.2 °F 24.8 °F 75% 30.12 in - East 9.2 mph - N/A   Clear
6:00 AM 32.0 °F 24.8 °F 24.8 °F 75% 30.09 in - East 8.1 mph - N/A   Clear
7:00 AM 33.8 °F 27.0 °F 24.8 °F 70% 30.09 in - ENE 8.1 mph - N/A   Clear
8:00 AM 37.4 °F 30.8 °F 24.8 °F 60% 30.09 in - East 9.2 mph - N/A   Clear
9:00 AM 41.0 °F 34.3 °F 26.6 °F 57% 30.09 in - ESE 11.5 mph - N/A   Clear
10:00 AM 44.6 °F 37.8 °F 26.6 °F 49% 30.06 in - SSE 15.0 mph - N/A   Clear
11:00 AM 46.4 °F 39.8 °F 26.6 °F 46% 30.06 in - SSE 16.1 mph - N/A   Clear
12:00 PM 48.2 °F - 26.6 °F 43% 30.04 in - SSE 17.3 mph - N/A   Clear
1:00 PM 48.2 °F - 26.6 °F 43% 30.04 in - SSE 18.4 mph - N/A   Clear
2:00 PM 50.0 °F - 26.6 °F 40% 30.01 in - SSE 16.1 mph - N/A   Clear
3:00 PM 50.0 °F - 26.6 °F 40% 29.98 in - SSE 15.0 mph - N/A   Clear
4:00 PM 50.0 °F - 28.4 °F 43% 29.98 in - SSE 11.5 mph - N/A   Clear
5:00 PM 46.4 °F 41.9 °F 26.6 °F 46% 29.95 in - SSE 9.2 mph - N/A   Clear
6:00 PM 42.8 °F 38.0 °F 26.6 °F 53% 29.98 in - ESE 8.1 mph - N/A   Clear
7:00 PM 41.0 °F 36.4 °F 24.8 °F 53% 29.95 in - East 6.9 mph - N/A   Clear
8:00 PM 39.2 °F 34.2 °F 24.8 °F 56% 29.92 in - East 6.9 mph - N/A   Clear
9:00 PM 39.2 °F - 24.8 °F 56% 29.92 in - Calm Calm - N/A   Clear
10:00 PM 37.4 °F - 24.8 °F 60% 29.92 in - Calm Calm - N/A   Clear
11:00 PM 37.4 °F 34.9 °F 24.8 °F 60% 29.89 in - East 3.5 mph - N/A   Clear